     2              OBSERVATION DATA    GPS                 RINEX VERSION / TYPE
teqc 2003Nov3 UNAVCO Archive Ops 20031119 19:32:50UTC       PGM / RUN BY / DATE
                                                            COMMENT
L1 & L2: 9 8 7 6 5 4 1                                      COMMENT
L1 & L2: 9 8 7 6 5 4 1                                      COMMENT
L1 & L2: 9 8 7 6 5 4 1                                      COMMENT
L1 & L2: 9 8 7 6 5 4 1                                      COMMENT
L1 & L2: 9 8 7 6 5 4 1                                      COMMENT
L1 & L2: 9 8 7 6 5 4 1                                      COMMENT
L1 & L2: 9 8 7 6 5 4 1                                      COMMENT
L1 & L2: 9 8 7 6 5 4 1                                      COMMENT
L1 & L2: 9 8 7 6 5 4 1                                      COMMENT
L1 & L2: 9 8 7 6 5 4 1                                      COMMENT
L1 & L2: 9 8 7 6 5 4 1                                      COMMENT
L1 & L2: 9 8 7 6 5 4 1                                      COMMENT
L1 & L2: 9 8 7 6 5 4 1                                      COMMENT
L1 & L2: 9 8 7 6 5 4 1                                      COMMENT
L1 & L2: 9 8 7 6 5 4 1                                      COMMENT
L1 & L2: 9 8 7 6 5 4 1                                      COMMENT
L1 & L2: 9 8 7 6 5 4 1                                      COMMENT
L1 & L2: 9 8 7 6 5 4 1                                      COMMENT
L1 & L2: 9 8 7 6 5 4 1                                      COMMENT
L1 & L2: 9 8 7 6 5 4 1                                      COMMENT
L1 & L2: 9 8 7 6 5 4 1                                      COMMENT
L1 & L2: 9 8 7 6 5 4 1                                      COMMENT
L1 & L2: 9 8 7 6 5 4 1                                      COMMENT
L1 & L2: 9 8 7 6 5 4 1                                      COMMENT
L1 & L2: 9 8 7 6 5 4 1                                      COMMENT
L1 & L2: 9 8 7 6 5 4 1                                      COMMENT
Original Marker Name: ENDA                                  COMMENT
Campaign Name: Baja (Dixon) 1994                            COMMENT
4-Character Station Name: ENDA                              COMMENT
6-Character Antenna Code: DMRCHT                            COMMENT
Vertical Measurement Point: BCR                             COMMENT
Vertical Offset to Rinex Ref. Point: 0.0348                 COMMENT
Radial Measurement Point: ECF                               COMMENT
Radial Offset to Rinex Ref. Point: 0.1897                   COMMENT
Antenna Height from Field Measurement: 1.2730 m             COMMENT
Additional Antenna Identification Info.:                    COMMENT
Turborogue and Ashtech Choke Ring                           COMMENT
Original XYZ: -2433335.6442 -4844930.6722 3348397.0307      COMMENT
New XYZ position is based on association with SCEC monument COMMENT
E1C2W4P4+0011. Position of that monument is believed to be  COMMENT
valid to within 1 m horizontally; vertical accuracy         COMMENT
should be no worse than 3-times this value.                 COMMENT
                                                            COMMENT
Revised Rinex header created by UCSD GPS archive for        COMMENT
GSAC on 09-Jun-2007 (2007:160) 17:13:28 GMT                 COMMENT
For assistance contact dagnew@ucsd.edu                      COMMENT
or anderson@python.ucsd.edu                                 COMMENT
                                                            COMMENT
3035 S CICESE OLD                                           MARKER NAME
360                                                         MARKER NUMBER
Liu, G. UNAVCO                                              OBSERVER / AGENCY
T115 TURBOROGUE SNR-8000 93.06.08                           REC # / TYPE / VERS
115 DORNE-MARGOL. TYPE T                                    ANT # / TYPE
 -2433337.0000 -4844929.0000  3348395.0000                  APPROX POSITION XYZ
        1.2240        0.0000        0.0000                  ANTENNA: DELTA H/E/N
     1     1     0                                          WAVELENGTH FACT L1/2
     5    L1    L2    C1    P2    P1                        # / TYPES OF OBSERV
    30                                                      INTERVAL
  1995     3    21     0    45    0.000000                  TIME OF FIRST OBS
  1995     3    21    22    41    0.000000                  TIME OF LAST OBS
                                                            END OF HEADER
 95  3 21  0 45  0.0000000  0  5G 9G 5G24G 4G12
        -0.02259         0.64558  21241000.6764   21241001.0434
        -0.68059        -0.37556  22781570.8294   22781571.5134
        -0.61859         0.38058  20890539.1094   20890540.1344
        -0.02159         0.07958  20585110.2164   20585109.7544
         0.13319         0.31619  20679812.892    20679811.488
 95  3 21  0 45 30.0000000  0  5G 9G 5G24G 4G12
     -9310.55449     -7254.31048  21239229.0644   21239229.5974
    -74599.08849    -58128.97047  22767375.4564   22767376.0524
    -56440.12749    -43978.42648  20879798.7834   20879800.1524
     18372.25349     14316.14648  20588606.4694   20588606.1414
     14765.392 9     11505.703 9  20682622.622    20682621.234
 95  3 21  0 46  0.0000000  0  5G 9G 5G24G 4G12
    -18410.91049    -14345.49248  21237497.3554   21237497.5964
   -149548.93449   -116531.40547  22753112.9314   22753113.4384
   -112818.38249    -87909.50348  20869070.4544   20869071.6914
     36902.96349     28755.67148  20592132.7014   20592132.4344
     29679.237 9     23126.875 9  20685460.651    20685459.261
 95  3 21  0 46 30.0000000  0  5G 9G 5G24G 4G12
    -35084.40549    -27337.82548  21234324.5684   21234324.8564
   -232629.40249   -181269.38947  22737303.0344   22737304.0374
   -176903.86649   -137846.21448  20856875.1734   20856876.3414
     47820.99849     37263.23848  20594210.3604   20594210.1474
     36960.804 9     28800.820 9  20686846.336    20686844.886
 95  3 21  0 47  0.0000000  0  5G 9G 5G24G 4G12
    -49577.72149    -38631.31348  21231566.7324   21231566.9434
   -314080.11549   -244737.43847  22721803.2984   22721803.5024
   -238906.68249   -186160.06748  20845076.3984   20845077.4934
     60909.23849     47461.87748  20596701.0824   20596700.8404
     46381.411 9     36141.548 9  20688639.025    20688637.620
 95  3 21  0 47 30.0000000  0  5G 9G 5G24G 4G12
    -62328.51349    -48566.99048  21229140.2814   21229140.6244
   -394326.09049   -307266.72647  22706532.9604   22706533.2554
   -299242.73749   -233175.14648  20833595.0454   20833596.2544
     75732.68449     59012.62748  20599521.7914   20599521.5314
     57513.569 9     44815.954 9  20690757.412    20690756.033
 95  3 21  0 48  0.0000000  0  5G 9G 5G24G 4G12
    -73801.84949    -57507.24948  21226956.9974   21226956.9804
   -473789.76549   -369186.42547  22691411.8364   22691412.2584
   -358368.03349   -279246.77848  20822343.7054   20822344.9404
     91862.02249     71580.95548  20602591.0474   20602590.8354
     69919.655 9     54483.029 9  20693118.198    20693116.775
 95  3 21  0 48 30.0000000  0  5G 9G 5G24G 4G12
    -85589.87549    -66692.72348  21224713.4824   21224713.7964
   -554039.83649   -431718.91347  22676140.5494   22676140.9994
   -417862.74349   -325606.26648  20811022.0684   20811023.3734
    107719.77549     83937.66048  20605608.6124   20605608.3774
     82025.548 9     63916.188 9  20695421.864    20695420.446
 95  3 21  0 49  0.0000000  0  5G 9G 5G24G 4G12
    -96792.90849    -75422.36048  21222581.4234   21222581.7594
   -634161.29049   -494151.17847  22660893.9284   22660895.0454
   -476822.71249   -371549.07148  20799802.5364   20799803.5064
    124202.33449     96781.22448  20608744.9574   20608744.7334
     94738.212 9     73822.154 9  20697841.070    20697839.599
 95  3 21  0 49 30.0000000  0  5G 9G 5G24G 4G12
   -107318.19649    -83623.88148  21220578.8494   21220579.2474
   -714056.09949   -556406.84847  22645690.3974   22645691.0604
   -535163.71849   -417009.56848  20788700.8064   20788701.7684
    141388.99949    110173.44048  20612015.6134   20612015.3474
    108143.114 9     84267.524 9  20700391.928    20700390.475
 95  3 21  0 50  0.0000000  0  5G 9G 5G24G 4G12
   -117180.12549    -91308.49848  21218702.2834   21218702.8114
   -793761.80749   -618515.16247  22630522.9434   22630523.6584
   -592914.62849   -462010.24848  20777710.9754   20777712.1294
    159264.28449    124102.23748  20615417.3504   20615416.8594
    122215.250 9     95232.818 9  20703069.778    20703068.267
 95  3 21  0 50 30.0000000  0  6G 9G 5G 7G24G 4G12
   -126413.38649    -98503.24648  21216945.0374   21216945.6794
   -873339.51049   -680523.73347  22615379.9294   22615380.0564
        -0.66659        -0.36956  22667442.4604   22667443.6904
   -650107.73749   -506576.28348  20766827.3014   20766828.7384
    177771.62249    138523.54948  20618939.0804   20618938.6794
    136903.829 9    106678.459 9  20705864.914    20705863.445
 95  3 21  0 51  0.0000000  0  6G 9G 5G 7G24G 4G12
   -133716.72449   -104194.15948  21215555.5144   21215555.5364
   -951496.34149   -741425.13747  22600507.1404   22600507.2464
     67540.84948     52629.37546  22680295.0814   22680296.0424
   -705444.74349   -549696.00348  20756297.0334   20756298.3934
    198197.90849    154440.14148  20622825.7904   20622825.5814
    153495.954 9    119607.381 9  20709022.300    20709020.868
 95  3 21  0 51 30.0000000  0  6G 9G 5G 7G24G 4G12
   -139121.50749   -108405.68148  21214527.0974   21214526.8024
  -1028281.52749   -801257.72847  22585895.3304   22585895.5424
    136422.19248    106303.14346  22693402.9644   22693404.0704
   -758974.30349   -591407.32148  20746110.8594   20746111.8894
    220513.40849    171828.84648  20627072.3854   20627072.2234
    171947.465 9    133985.174 9  20712533.546    20712532.128
 95  3 21  0 52  0.0000000  0  6G 9G 5G 7G24G 4G12
   -147555.49849   -114977.63048  21212922.1484   21212922.0824
  -1108621.21649   -863860.06047  22570607.1004   22570607.6784
    201720.96748    157185.29446  22705829.0814   22705830.2614
   -815631.71549   -635555.92648  20735329.3144   20735330.1374
    239784.96849    186845.65148  20630739.7904   20630739.3934
    187332.922 9    145973.837 9  20715461.312    20715459.847
 95  3 21  0 52 30.0000000  0  6G 9G 5G 7G24G 4G12
   -155021.48349   -120795.28748  21211501.2464   21211501.5444
  -1188497.37749   -926101.20447  22555407.1314   22555407.6034
    267428.16648    208385.70346  22718333.0234   22718334.2674
   -871428.01249   -679033.53148  20724711.5014   20724712.6224
    259999.97449    202597.61248  20634586.6414   20634586.2184
    203646.674 9    158685.848 9  20718565.709    20718564.206
 95  3 21  0 53  0.0000000  0  6G 9G 5G 7G24G 4G12
   -161696.90749   -125996.92248  21210230.8494   21210231.3314
  -1268090.17049   -988121.55247  22540261.1154   22540261.3284
    333338.93348    259744.71746  22730875.4014   22730876.6274
   -926565.96649   -721998.14148  20714218.9334   20714220.1054
    280969.97549    218937.88048  20638576.9854   20638576.6204
    220704.613 9    171977.746 9  20721811.746    20721810.245
 95  3 21  0 53 30.0000000  0  6G 9G 5G 7G24G 4G12
   -167655.54149   -130640.02548  21209097.2524   21209097.4184
  -1347477.87449  -1049982.08047  22525154.1744   22525154.4884
    399390.54548    311213.49346  22743444.4534   22743445.5294
   -981125.67649   -764512.17248  20703836.6474   20703837.7384
    302621.73249    235809.38848  20642697.1114   20642696.8804
    238439.002 9    185796.743 9  20725186.500    20725185.054
 95  3 21  0 54  0.0000000  0  6G 9G 5G 7G24G 4G12
   -172921.15749   -134743.11248  21208095.2364   21208095.3464
  -1426662.71649  -1111684.53447  22510085.8214   22510086.7244
    465585.96748    362794.32646  22756041.2364   22756042.7324
  -1035106.44449   -806575.07648  20693564.5974   20693565.6644
    324936.59549    253197.60148  20646943.6024   20646943.3084
    256844.742 9    200138.868 9  20728688.953    20728687.522
 95  3 21  0 54 30.0000000  0  6G 9G 5G 7G24G 4G12
   -177535.35449   -138338.60248  21207217.0314   21207217.2954
  -1505685.88649  -1173260.99947  22495048.1524   22495049.2414
    531894.78648    414463.51146  22768659.3014   22768660.2554
  -1088535.47849   -848208.05948  20683397.2814   20683398.4184
    347891.37949    271084.45048  20651311.7504   20651311.4284
    275888.864 9    214978.436 9  20732312.957    20732311.413
 95  3 21  0 55  0.0000000  0  6G 9G 5G 7G24G 4G12
   -181486.33349   -141417.29548  21206465.1624   21206465.2994
  -1584537.78649  -1234704.00647  22480042.9644   22480043.7074
    598347.10748    466244.52946  22781304.6174   22781305.5654
  -1141388.97249   -889392.57048  20673339.4714   20673340.6834
    371520.08349    289496.43148  20655808.0414   20655807.6654
    295599.158 9    230337.100 9  20736063.720    20736062.181
 95  3 21  0 55 30.0000000  0  6G 9G 5G 7G24G 4G12
   -184804.98149   -144003.26948  21205833.7984   21205833.8604
  -1663231.40749  -1296023.67747  22465068.2944   22465068.5174
    664928.66448    518126.23646  22793974.2994   22793976.2034
  -1193667.97549   -930129.42348  20663390.9204   20663392.4164
    395802.33749    308417.67548  20660428.8934   20660428.5224
    315956.104 9    246199.647 9  20739937.570    20739936.044
 95  3 21  0 56  0.0000000  0  6G 9G 5G 7G24G 4G12
   -187513.11249   -146113.51248  21205318.5154   21205318.5574
  -1741771.57549  -1357223.77147  22450122.6574   22450123.3334
    731619.06348    570092.77246  22806665.3484   22806666.5634
  -1245370.03549   -970416.71348  20653552.2374   20653553.5764
    420718.05649    327832.52948  20665170.2854   20665169.9384
    336944.760 9    262554.433 9  20743931.562    20743930.084
 95  3 21  0 56 30.0000000  0  6G 9G 5G 7G24G 4G12
   -189624.31049   -147758.60648  21204916.7984   21204917.1434
  -1820179.49649  -1418320.81447  22435202.2024   22435202.5804
    798385.77448    622118.76646  22819370.5884   22819371.6274
  -1296518.86849  -1010272.91448  20643819.1184   20643820.2124
    446230.11049    347712.06148  20670025.0374   20670024.6734
    358536.284 9    279378.986 9  20748040.310    20748038.791
 95  3 21  0 57  0.0000000  0  6G 9G 5G 7G24G 4G12
   -191121.98449   -148925.62748  21204631.6324   21204632.2104
  -1898434.52449  -1479298.71547  22420310.6324   22420310.8614
    865235.55348    674209.48946  22832091.7164   22832092.5374
  -1347100.40349  -1049687.06448  20634193.9014   20634194.8474
    472330.13249    368049.75048  20674991.6954   20674991.4214
    380734.721 9    296676.457 9  20752264.557    20752262.981
 95  3 21  0 57 30.0000000  0  6G 9G 5G 7G24G 4G12
   -192038.85249   -149640.07548  21204457.3624   21204457.5334
  -1976557.44849  -1540173.68247  22405444.1214   22405444.7114
    932138.56148    726341.67646  22844823.0854   22844824.0424
  -1397133.89349  -1088674.16748  20624672.6994   20624673.7774
    498970.45849    388808.45848  20680061.0864   20680060.8594
    403506.753 9    314420.884 9  20756597.945    20756596.424
 95  3 21  0 58  0.0000000  0  6G 9G 5G 7G24G 4G12
   -192386.05749   -149910.63348  21204391.2734   21204391.2204
  -2054570.42849  -1600962.97947  22390598.6394   22390599.0534
    999075.25048    778500.12146  22857560.7234   22857562.1514
  -1446659.06049  -1127265.17648  20615248.4434   20615249.5134
    526134.01249    409974.87748  20685230.0774   20685229.9154
    426833.187 9    332597.310 9  20761036.804    20761035.319
 95  3 21  0 58 30.0000000  0  6G 9G 5G 7G24G 4G12
   -192171.75449   -149743.65148  21204431.8504   21204431.9094
  -2132504.38449  -1661690.69347  22375768.1904   22375768.6434
   1066012.15548    830658.73346  22870298.4544   22870299.8794
  -1495716.72549  -1165491.89548  20605913.1084   20605914.0314
    553810.69149    431541.13248  20690496.8664   20690496.5154
    450685.029 9    351183.147 9  20765575.676    20765574.168
 95  3 21  0 59  0.0000000  0  6G 9G 5G 7G24G 4G12
   -191411.51749   -149151.26348  21204576.6084   21204576.8734
  -2210389.43849  -1722380.29747  22360947.4184   22360947.6184
   1132932.42848    882804.38846  22883033.1884   22883034.6714
  -1544319.04249  -1203363.80048  20596664.1834   20596665.1444
    581999.12249    453506.15948  20695860.8774   20695860.5464
    475049.443 9    370168.391 9  20770212.047    20770210.588
 95  3 21  0 59 30.0000000  0  6G 9G 5G 7G24G 4G12
   -190101.15649   -148130.20148  21204826.0104   21204826.3204
  -2288230.78649  -1783035.85147  22346134.4284   22346134.5244
   1199825.39648    934928.76746  22895762.4954   22895762.9624
  -1592462.66249  -1240878.28148  20587502.7384   20587503.7254
    610705.70149    475874.93948  20701323.5024   20701322.9494
    499932.608 9    389557.855 9  20774947.215    20774945.708
 95  3 21  1  0  0.0000000  0  6G 9G 5G 7G24G 4G12
   -188204.79149   -146652.51448  21205186.9814   21205187.1844
  -2366012.59749  -1843645.00847  22331332.9374   22331333.5994
   1266707.30848    987044.54246  22908489.6954   22908490.9754
  -1640128.01949  -1278020.08648  20578432.3734   20578433.2004
    639956.31249    498667.63648  20706889.7774   20706889.3134
    525352.294 9    409365.388 9  20779784.432    20779782.925
 95  3 21  1  0 30.0000000  0  6G 9G 5G 7G24G 4G12
   -185732.41549   -144725.99448  21205657.3174   21205657.3514
  -2443740.87049  -1904212.45347  22316541.7764   22316542.3784
   1333582.08448   1039154.75346  22921215.2634   22921217.3314
  -1687296.90149  -1314775.03048  20569456.6344   20569457.5554
    669748.49649    521882.34048  20712559.0804   20712558.7124
    551307.169 9    429589.952 9  20784723.474    20784721.942
 95  3 21  1  1  0.0000000  0  6G 9G 5G 7G24G 4G12
   -182692.35049   -142357.11848  21206236.0084   21206236.0194
  -2521393.22449  -1964720.74647  22301765.2694   22301765.7774
   1400477.62648   1091281.14346  22933945.3094   22933946.4244
  -1733946.11849  -1351125.03948  20560579.5254   20560580.3374
    700078.45249    545516.08748  20718330.5124   20718330.2214
    577815.118 9    450245.483 9  20789767.807    20789766.262
 95  3 21  1  1 30.0000000  0  6G 9G 5G 7G24G 4G12
   -179078.23049   -139540.92648  21206923.5654   21206924.0664
  -2598938.64849  -2025145.72347  22287008.8384   22287009.2444
   1467405.11348   1143432.40646  22946681.3574   22946682.5594
  -1780069.88349  -1387065.60548  20551802.1454   20551803.2154
    730953.89449    569574.89148  20724205.9884   20724205.5054
    604885.659 9    471339.396 9  20794919.159    20794917.678
 95  3 21  1  2  0.0000000  0  6G 9G 5G 7G24G 4G12
   -174904.50949   -136288.67948  21207717.6804   21207718.1784
  -2676376.60249  -2085486.95647  22272272.8594   22272273.2174
   1534368.04248   1195611.30546  22959424.0504   22959424.8524
  -1825680.59249  -1422606.39048  20543122.7194   20543123.8254
    762378.86849    594061.90048  20730185.9664   20730185.5924
    632506.798 9    492862.347 9  20800175.282    20800173.816
 95  3 21  1  2 30.0000000  0  6G 9G 5G 7G24G 4G12
   -170198.26349   -132621.48048  21208613.4694   21208613.7364
  -2753704.18249  -2145742.19147  22257557.8104   22257558.3704
   1601355.97049   1247809.68646  22972171.3434   22972172.0864
  -1870782.66549  -1457750.83548  20534540.1274   20534541.0964
    794349.12149    618973.79948  20736269.8154   20736269.4014
    660673.301 9    514810.258 9  20805535.210    20805533.678
 95  3 21  1  3  0.0000000  0  6G 9G 5G 7G24G 4G12
   -164961.93749   -128541.23948  21209609.9514   21209610.0714
  -2830914.29049  -2205905.89347  22242864.8034   22242865.0244
   1668350.47048   1300013.17346  22984919.8164   22984920.3934
  -1915386.92649  -1492507.37348  20526052.2824   20526053.2854
    826851.66649    644300.47048  20742454.7794   20742454.2094
    689375.590 9    537175.665 9  20810997.103    20810995.528
 95  3 21  1  3 30.0000000  0  6G 9G 5G 7G24G 4G12
   -159150.55149   -124012.89848  21210715.6534   21210716.1104
  -2907973.50249  -2265952.00647  22228201.0354   22228201.6834
   1735382.84048   1352246.18246  22997675.5914   22997676.5744
  -1959464.51049  -1526853.51648  20517664.6854   20517665.5324
    859928.23749    670074.43248  20748749.0544   20748748.5824
    718644.430 9    559982.542 9  20816566.851    20816565.259
 95  3 21  1  4  0.0000000  0  6G 9G 5G 7G24G 4G12
   -152765.77849   -119037.76148  21211930.6274   21211931.3154
  -2984887.88749  -2325885.26547  22213564.7714   22213565.2154
   1802456.62248   1404511.46046  23010439.2104   23010440.8404
  -2003015.24149  -1560789.12248  20509377.2294   20509378.1884
    893572.17949    696290.50148  20755151.1344   20755150.8064
    748480.188 9    583231.171 9  20822244.417    20822242.822
 95  3 21  1  4 30.0000000  0  6G 9G 5G 7G24G 4G12
   -145787.94449   -113600.49648  21213258.5834   21213259.0884
  -3061646.50549  -2385697.14447  22198958.0434   22198958.7504
   1869583.42748   1456818.04446  23023213.2724   23023214.9734
  -2046019.40349  -1594298.83148  20501193.6254   20501194.7624
    927775.25749    722942.26148  20761659.7904   20761659.5754
    778901.348 9    606935.955 9  20828033.365    20828031.770
 95  3 21  1  5  0.0000000  0  6G 9G 5G 7G24G 4G12
   -138207.59349   -107693.74248  21214701.1314   21214701.5094
  -3138266.35049  -2445400.88947  22184377.8224   22184378.0454
   1936767.23348   1509169.04846  23035998.0024   23035998.8174
  -2088489.47349  -1627392.36448  20493111.8374   20493112.9784
    962517.81049    750014.38648  20768271.1014   20768270.6644
    809900.294 9    631090.961 9  20833932.243    20833930.672
 95  3 21  1  5 30.0000000  0  6G 9G 5G 7G24G 4G12
   -130049.40149   -101336.72148  21216253.2774   21216253.6294
  -3214785.37049  -2505026.07447  22169816.7494   22169816.8524
   2003988.25748   1561549.03446  23048789.8404   23048790.4914
  -2130449.90649  -1660088.77648  20485127.2124   20485128.0114
    997757.26449    777473.71148  20774976.9504   20774976.5184
    841450.507 9    655675.529 9  20839936.079    20839934.500
 95  3 21  1  6  0.0000000  0  6G 9G 5G 7G24G 4G12
   -121303.37849    -94521.65348  21217917.6914   21217918.0484
  -3291217.55249  -2564583.59747  22155272.2004   22155272.1464
   2071229.44848   1613944.75646  23061584.9904   23061586.3764
  -2171892.26849  -1692381.49548  20477240.8604   20477241.5464
   1033481.12849    805310.49648  20781774.9934   20781774.6834
    873547.786 9    680686.383 9  20846044.020    20846042.421
 95  3 21  1  6 30.0000000  0  6G 9G 5G 7G24G 4G12
   -111988.24649    -87263.12348  21219690.6664   21219690.9614
  -3367589.51249  -2624094.19747  22140739.1594   22140739.3594
   2138456.93648   1666329.79346  23074378.4194   23074378.5114
  -2212836.87249  -1724286.35148  20469449.2294   20469449.8864
   1069654.95349    833497.89548  20788658.6194   20788658.3464
    906161.231 9    706099.443 9  20852250.179    20852248.560
 95  3 21  1  7  0.0000000  0  6G 9G 5G 7G24G 4G12
   -102111.84049    -79567.23548  21221569.8244   21221570.3604
  -3443894.17549  -2683552.34347  22126218.8314   22126218.9544
   2205673.10048   1718706.01046  23087169.3834   23087170.0594
  -2253280.00849  -1755800.45048  20461753.1894   20461754.0734
   1106294.47849    862048.18048  20795630.9214   20795630.6024
    939289.491 9    731913.655 9  20858554.280    20858552.661
 95  3 21  1  7 30.0000000  0  6G 9G 5G 7G24G 4G12
    -91727.55549    -71475.60248  21223545.9154   21223546.4244
  -3520165.07749  -2742984.17947  22111704.7874   22111704.9244
   2272812.08748   1771022.09846  23099944.9074   23099946.3294
  -2293270.04549  -1786961.48648  20454143.3324   20454144.1614
   1143366.62749    890935.57748  20802685.5754   20802684.9994
    972884.862 9    758091.846 9  20864947.266    20864945.671
 95  3 21  1  8  0.0000000  0  6G 9G 5G 7G24G 4G12
    -80825.01349    -62980.13348  21225620.6734   21225620.8894
  -3596357.84949  -2802355.13347  22097205.6204   22097206.2894
   2339888.94848   1823289.77146  23112709.0824   23112710.6134
  -2332791.67949  -1817757.53348  20446622.6424   20446623.7334
   1180911.44449    920191.28948  20809830.0574   20809829.6434
   1006967.956 9    784650.083 9  20871433.067    20871431.501
 95  3 21  1  8 30.0000000  0  6G 9G 5G 7G24G 4G12
    -69432.49649    -54102.86748  21227788.6074   21227789.1134
  -3672449.74349  -2861647.47547  22082725.7244   22082726.4114
   2406915.33048   1875518.11646  23125464.1044   23125464.9764
  -2371855.76649  -1848197.05048  20439188.7854   20439189.7094
   1218932.24249    949817.89848  20817065.1224   20817064.8204
   1041543.623 9    811592.146 9  20878012.647    20878011.029
 95  3 21  1  9  0.0000000  0  6G 9G 5G 7G24G 4G12
    -57550.52149    -44844.20048  21230049.6714   21230050.1114
  -3748421.56349  -2920846.25847  22068268.8784   22068269.2474
   2473905.92348   1927718.57046  23138212.0094   23138212.6934
  -2410461.55749  -1878279.45648  20431842.3444   20431843.2824
   1257448.72749    979830.75348  20824394.5184   20824394.1324
   1076627.815 9    838930.463 9  20884688.964    20884687.324
 95  3 21  1  9 30.0000000  0  6G 9G 5G 7G24G 4G12
    -45138.75149    -35172.70348  21232411.5944   21232411.9184
  -3824231.74249  -2979919.08547  22053842.7624   22053843.2304
   2540890.09248   1979913.99046  23150958.8104   23150960.0294
  -2448579.87249  -1907982.00848  20424588.6594   20424589.5064
   1296494.42749   1010255.98548  20831824.7724   20831824.3224
   1112254.421 9    866691.436 9  20891468.498    20891466.827
 95  3 21  1 10  0.0000000  0  6G 9G 5G 7G24G 4G12
    -32141.39449    -25044.90948  21234885.1044   21234885.1484
  -3899839.02849  -3038833.82047  22039455.3024   22039455.3094
   2607939.80548   2032160.50946  23163718.1684   23163718.9784
  -2486154.02249  -1937260.53548  20417438.5524   20417439.4114
   1336108.04149   1041123.74948  20839363.1254   20839362.6364
   1148476.732 9    894916.591 9  20898361.391    20898359.781
 95  3 21  1 10 30.0000000  0  6G 9G 5G 7G24G 4G12
    -18572.48649    -14471.74948  21237467.1254   21237467.4844
  -3975290.09149  -3097626.82647  22025097.2904   22025097.5904
   2675039.89548   2084446.28746  23176486.9764   23176488.8264
  -2523190.33849  -1966119.97248  20410390.8064   20410391.7184
   1376267.01249   1072416.46348  20847005.1004   20847004.7634
   1185276.298 9    923591.554 9  20905364.150    20905362.537
 95  3 21  1 11  0.0000000  0  6G 9G 5G 7G24G 4G12
     -4390.51149     -3420.86948  21240165.5514   21240166.1694
  -4050567.40849  -3156284.43847  22010772.4604   22010773.0064
   2742216.26048   2136791.50246  23189269.9314   23189270.8484
  -2559648.87249  -1994529.19148  20403452.9064   20403453.9924
   1417000.34849   1104156.73148  20854756.2254   20854755.8534
   1222672.888 9    952731.735 9  20912480.491    20912478.839
 95  3 21  1 11 30.0000000  0  6G 9G 5G 7G24G 4G12
     10390.37449      8096.69748  21242978.4444   21242978.7544
  -4125696.29349  -3214826.38447  21996475.8234   21996475.9674
   2809445.96048   2189178.28946  23202063.1844   23202065.2284
  -2595540.84849  -2022496.93848  20396622.8644   20396623.8824
   1458273.49049   1136317.62848  20862610.1494   20862609.8854
   1260638.758 9    982315.517 9  20919705.188    20919703.454
 95  3 21  1 12  0.0000000  0  6G 9G 5G 7G24G 4G12
     25764.51749     20076.53748  21245904.0354   21245904.0904
  -4200681.54149  -3273256.41647  21982206.7214   21982206.7234
   2876732.08148   2241609.01646  23214867.2514   23214868.9804
  -2630849.65649  -2050010.26848  20389903.8764   20389904.7584
   1500075.65649   1168890.75148  20870564.8814   20870564.6384
   1299176.237 9   1012344.707 9  20927038.653    20927036.941
 95  3 21  1 12 30.0000000  0  6G 9G 5G 7G24G 4G12
     41710.59549     32502.04048  21248938.2204   21248938.5434
  -4275516.87549  -3331569.64447  21967966.0104   21967966.1334
   2944053.32548   2294067.10746  23227678.0584   23227679.8804
  -2665582.74749  -2077074.98548  20383294.4264   20383295.3274
   1542399.48149   1201870.36448  20878618.9674   20878618.6624
   1338276.612 9   1042812.512 9  20934479.212    20934477.569
 95  3 21  1 13  0.0000000  0  6G 9G 5G 7G24G 4G12
     58222.54749     45368.48548  21252080.4134   21252080.8254
  -4350187.85049  -3389754.80647  21953756.5224   21953756.8624
   3011400.15948   2346545.17046  23240493.7274   23240495.1784
  -2699763.87249  -2103709.60348  20376789.8204   20376790.6934
   1585234.42249   1235248.24648  20886770.1014   20886769.7094
   1377933.398 9   1073713.879 9  20942025.657    20942024.025
 95  3 21  1 13 30.0000000  0  6G 9G 5G 7G24G 4G12
     74926.87149     58384.82448  21255259.5824   21255259.8654
  -4425063.36749  -3448099.33947  21939508.0224   21939508.4064
   3078404.66948   2398756.46046  23253244.3224   23253244.7314
  -2733778.36749  -2130214.37848  20370317.1174   20370318.0474
   1628204.85149   1268731.69948  20894947.0514   20894946.7914
   1417779.781 9   1104762.988 9  20949608.168    20949606.513
 95  3 21  1 14  0.0000000  0  6G 9G 5G 7G24G 4G12
     91906.45449     71615.65348  21258490.6094   21258491.0114
  -4500061.44749  -3506539.37847  21925236.5854   21925237.0994
   3145159.85248   2450773.47746  23265947.4884   23265949.4474
  -2767545.69049  -2156526.54848  20363891.4824   20363892.3604
   1671407.26849   1302395.92348  20903168.2474   20903167.8904
   1457910.460 9   1136033.630 9  20957244.795    20957243.148
 95  3 21  1 14 30.0000000  0  6G 9G 5G 7G24G 4G12
    110170.76649     85847.56848  21261966.0914   21261966.3554
  -4574177.16249  -3564291.85847  21911133.0974   21911133.4014
   3212673.10048   2503381.17746  23278794.9554   23278795.9254
  -2800084.39049  -2181881.34948  20357699.3944   20357700.3244
   1715836.88049   1337016.40648  20911622.9494   20911622.6084
   1499323.304 9   1168303.362 9  20965125.449    20965123.828
 95  3 21  1 15  0.0000000  0  5G 9G 5G24G 4G12
    129067.79949    100572.51448  21265562.0204   21265562.3054
  -4648075.28649  -3621874.78947  21897070.6244   21897070.5784
  -2832050.12549  -2206789.68548  20351616.3534   20351617.3564
   1760825.98549   1372072.86048  20920184.0704   20920183.6744
   1541353.328 9   1201054.012 9  20973123.557    20973121.860
 95  3 21  1 15 30.0000000  0  6G 5G 9G12G16G24G 4
  -4721892.13349  -3679394.39047  21883023.4234   21883023.8314
    148464.45249    115686.77848  21269253.2034   21269253.7364
   1583863.455 9   1234178.769 9  20981212.959    20981211.264
        -1.04358        -0.38255  25310898.3484   25310900.3444
  -2863559.43949  -2231342.36848  20345620.5074   20345621.3344
   1806237.42949   1407458.41148  20928825.5544   20928825.2054
 95  3 21  1 16  0.0000000  0  6G 5G 9G12G16G24G 4
  -4794284.61849  -3735804.09847  21869247.6054   21869247.7534
    169702.68549    132236.03648  21273294.7424   21273295.2024
   1628187.049 9   1268716.617 9  20989647.435    20989645.802
    -83293.75448    -64903.75045  25295047.6444   25295048.2254
  -2893254.74249  -2254481.53548  20339969.8644   20339970.7324
   1853403.99849   1444211.59048  20937801.0124   20937800.5824
 95  3 21  1 16 30.0000000  0  5G 5G 9G12G24G 4
  -4865284.35849  -3791128.54447  21855736.9434   21855737.1054
    192735.94649    150184.01848  21277677.8794   21277678.1514
   1674267.617 9   1304623.531 9  20998416.289    20998414.669
  -2921178.82849  -2276240.53348  20334655.8834   20334656.7734
   1902274.37249   1482292.40648  20947100.6574   20947100.5064
 95  3 21  1 17  0.0000000  0  5G 5G 9G12G24G 4
  -4939833.12549  -3849218.46247  21841550.7634   21841551.1674
    212620.11249    165678.15348  21281461.7584   21281461.9904
   1717161.660 9   1338047.442 9  21006578.783    21006577.156
  -2952259.74949  -2300459.40848  20328741.2314   20328742.4134
   1947921.60549   1517861.68248  20955786.9954   20955786.9024
 95  3 21  1 17 30.0000000  0  5G 5G 9G12G24G 4
  -5013964.78149  -3906983.35647  21827443.9574   21827444.2554
    233315.55249    181804.44948  21285399.8054   21285400.3734
   1760827.600 9   1372072.831 9  21014888.224    21014886.463
  -2982547.82149  -2324060.47548  20322977.7044   20322978.4354
   1994310.99349   1554009.26548  20964614.6704   20964614.3674
 95  3 21  1 18  0.0000000  0  5G 5G 9G12G24G 4
  -5087660.08749  -3964408.23847  21813420.1524   21813420.4444
    254827.75549    198567.18348  21289493.5094   21289493.9784
   1805279.297 9   1406710.499 9  21023347.097    21023345.396
  -3012040.31649  -2347041.61348  20317365.4434   20317366.1614
   2041456.39149   1590745.94748  20973586.0954   20973585.8134
 95  3 21  1 18 30.0000000  0  6G 5G 9G 4G12G20G24
  -5160987.48649  -4021546.44447  21799466.3394   21799466.7134
    277068.90549    215897.92748  21293725.9264   21293726.1374
   2089283.60949   1628013.92348  20982687.3874   20982686.9864
   1850445.867 9   1441905.207 9  21031942.049    21031940.376
        -0.55757        -0.12454  24915265.1024   24915262.1394
  -3040824.81349  -2369471.06248  20311887.9534   20311888.7104
 95  3 21  1 19  0.0000000  0  6G 5G 9G 4G12G20G24
  -5234057.68649  -4078484.23247  21785561.6044   21785561.8344
    299930.71049    233712.30048  21298076.4794   21298076.7314
   2137684.00549   1665728.53448  20991897.6304   20991897.3294
   1896228.404 9   1477579.892 9  21040654.159    21040652.521
    -98808.52647    -76993.39244  24896576.6394   24896574.1334
  -3069000.68549  -2391426.26348  20306526.2314   20306526.9604
 95  3 21  1 19 30.0000000  0  5G 5G 9G 4G12G24
  -5306802.11649  -4135168.17647  21771718.6734   21771718.8984
    323468.05249    252053.06648  21302555.4944   21302555.6524
   2186695.76349   1703919.52748  21001224.2404   21001223.9914
   1942695.418 9   1513787.938 9  21049496.519    21049494.872
  -3096505.75249  -2412858.75948  20301292.1634   20301292.9694
 95  3 21  1 20  0.0000000  0  6G 5G 9G 4G12G16G24
  -5379370.43649  -4191714.88647  21757909.4254   21757909.7994
    347536.44549    270807.64948  21307135.4604   21307136.2034
   2236171.92849   1742472.39148  21010639.3134   21010638.9524
   1989712.471 9   1550424.587 9  21058443.585    21058441.945
        -0.31157         0.31954  25164604.6034   25164609.0734
  -3123469.19949  -2433869.21148  20296161.3784   20296162.0504
 95  3 21  1 20 30.0000000  0  7G 5G 9G 4G12G20G16G24
  -5451839.49849  -4248184.25047  21744119.0624   21744119.4374
    372081.90749    289933.97148  21311806.2884   21311807.0164
   2286025.87949   1781319.63848  21020126.2574   21020125.9724
   2037206.183 9   1587432.658 9  21067481.400    21067479.766
        -0.64357        -0.25754  24840546.4234   24840542.2624
    -86668.04047    -67532.99344  25148111.3914   25148120.5014
  -3149949.92049  -2454503.51348  20291122.1444   20291122.8244
 95  3 21  1 21  0.0000000  0  7G 5G 9G 4G12G20G16G24
  -5524003.50649  -4304415.91147  21730386.5234   21730386.8064
    397314.03249    309595.35548  21316608.0594   21316608.1904
   2336451.77249   1820612.55048  21029721.9954   21029721.6834
   2085374.215 9   1624966.168 9  21076647.489    21076645.862
    -98135.22047    -76468.82544  24821871.8704   24821862.4734
   -173374.45448   -135096.40145  25131612.0534   25131613.9364
  -3175736.32549  -2474596.79048  20286214.9694   20286215.6544
 95  3 21  1 21 30.0000000  0  7G 5G 9G 4G12G20G16G24
  -5595950.94649  -4360478.83047  21716695.4124   21716695.5904
    423139.76749    329719.28848  21321522.2884   21321522.7904
   2387361.43549   1860282.42948  21039409.6384   21039409.2544
   2134118.046 9   1662948.355 9  21085923.169    21085921.515
   -196246.86047   -152919.40044  24803200.5234   24803203.4084
   -260200.75148   -202753.23745  25115089.9214   25115090.6214
  -3200942.41049  -2494237.87048  20281418.3614   20281419.1574
 95  3 21  1 22  0.0000000  0  6G 5G 9G 4G12G16G24
  -5667708.83249  -4416394.04847  21703040.3054   21703040.5484
    449527.24649    350280.95048  21326543.5574   21326543.8554
   2438738.88949   1900316.81748  21049186.3814   21049186.0904
   2183401.271 9   1701350.850 9  21095301.444    21095299.753
   -347176.25448   -270526.31345  25098539.2844   25098541.9004
  -3225600.22249  -2513451.72348  20276726.4134   20276726.9794
 95  3 21  1 22 30.0000000  0  6G 5G 9G 4G12G16G24
  -5739260.50949  -4472148.58047  21689424.3884   21689424.5624
    476464.26549    371270.82748  21331669.4274   21331669.9584
   2490583.10149   1940714.91548  21059052.1214   21059051.6304
   2233218.092 9   1740169.134 9  21104781.327    21104779.622
   -434303.97448   -338418.00445  25081959.2904   25081958.0114
  -3249713.54849  -2532241.30048  20272137.6824   20272138.2374
 95  3 21  1 23  0.0000000  0  6G 5G 9G 4G12G16G24
  -5810633.27749  -4527763.69547  21675842.6264   21675842.9144
    503896.09549    392646.26848  21336889.7954   21336890.2824
   2542880.06749   1981465.80548  21069004.0314   21069003.4094
   2283532.778 9   1779375.360 9  21114355.904    21114354.249
   -521621.02748   -406457.22845  25065342.8244   25065345.5354
  -3273339.52049  -2550651.12048  20267641.6484   20267642.4994
 95  3 21  1 23 30.0000000  0  7G 5G 9G 4G12G20G16G24
  -5881808.26049  -4583224.69047  21662298.5364   21662298.8284
    531859.42849    414435.85948  21342210.9164   21342211.3404
   2595661.31449   2022594.06148  21079047.9244   21079047.1594
   2334376.235 9   1818993.615 9  21124031.117    21124029.456
        -0.11857         0.83054  24728486.4904   24728487.4364
   -609088.17248   -474613.45144  25048697.9174   25048698.9564
  -3296446.40249  -2568656.45848  20263244.5144   20263245.2414
 95  3 21  1 24  0.0000000  0  7G 5G 9G 4G12G20G16G24
  -5952791.18149  -4638536.02847  21648791.0494   21648791.2484
    560349.02549    436635.52847  21347632.2274   21347632.8634
   2648910.81349   2064087.18448  21089180.8924   21089180.2544
   2385738.308 9   1859015.985 9  21133805.016    21133803.313
    -98235.09447    -76545.85544  24709792.8114   24709798.4524
   -696720.17248   -542898.14845  25032021.3134   25032026.6874
  -3319010.86149  -2586239.12848  20258950.8874   20258951.5094
 95  3 21  1 24 30.0000000  0  6G 5G 9G 4G20G16G24
  -6023625.28349  -4693731.40647  21635311.5864   21635311.8274
    589328.13849    459216.63647  21353146.8394   21353147.5034
   2702584.17249   2105910.58648  21099394.4904   21099394.0304
   -196557.69547   -153160.73244  24691082.7814   24691088.0644
   -784564.34648   -611348.10644  25015305.6034   25015304.3284
  -3341082.72949  -2603437.95848  20254750.8674   20254751.3204
 95  3 21  1 25  0.0000000  0  6G 5G 9G 4G20G16G24
  -6094302.35249  -4748804.42347  21621862.1604   21621862.2934
    618824.83149    482201.05248  21358760.0394   21358760.4874
   2756690.27249   2148071.18648  21109690.6074   21109690.3484
   -294955.76448   -229834.56944  24672357.9934   24672359.8304
   -872595.20148   -679943.59644  24998555.3934   24998558.8204
  -3362650.24349  -2620243.78748  20250646.4074   20250647.0394
 95  3 21  1 25 30.0000000  0  7G 5G 9G 4G20G 6G16G24
  -6164796.65549  -4803735.02147  21608447.5054   21608447.7034
    648863.30249    505607.62648  21364476.2864   21364476.3964
   2811239.99349   2190577.46648  21120071.1384   21120070.5854
   -393401.10348   -306545.14744  24653624.9494   24653628.5454
        -1.05558        -0.66754  25409481.7534   25409482.0334
   -960784.37348   -748662.42744  24981773.4334   24981773.4994
  -3383663.89549  -2636618.03848  20246647.5554   20246648.2344
 95  3 21  1 26  0.0000000  0  7G 5G 9G 4G20G 6G16G24
  -6235156.29849  -4858560.68647  21595058.4764   21595058.8934
    679372.75849    529381.21047  21370281.9174   21370282.3334
   2866180.71449   2233388.42348  21130525.9924   21130525.5444
   -491944.41648   -383332.07744  24634872.7884   24634875.3644
    -70542.69348    -54967.92644  25396058.3344   25396055.1684
  -1049198.13648   -817556.20944  24964948.7424   24964946.0944
  -3404193.49649  -2652615.10548  20242741.0154   20242741.5324
 95  3 21  1 26 30.0000000  0  7G 5G 9G 4G20G 6G16G24
  -6305393.73149  -4913291.12247  21581692.6694   21581693.0144
    710328.67449    553502.68747  21376172.5114   21376173.1724
   2921488.27849   2276485.23148  21141050.6324   21141050.2104
   -590601.02148   -460207.25644  24616099.3844   24616101.8144
   -141086.93148   -109937.33944  25382633.5434   25382631.4394
  -1137842.17848   -886629.40044  24948079.2884   24948083.2364
  -3424285.49249  -2668271.18048  20238917.7074   20238918.1374
 95  3 21  1 27  0.0000000  0  7G 5G 9G 4G20G 6G16G24
  -6375287.33149  -4967753.64047  21568392.3474   21568392.0644
    741955.39449    578146.87347  21382190.7034   21382191.5894
   2977389.97249   2320044.99548  21151688.4064   21151687.9324
   -689131.20548   -536983.88645  24597349.8044   24597352.4254
   -211423.73648   -164745.29445  25369249.4824   25369250.7254
  -1226484.82948   -955701.56245  24931211.2814   24931213.2894
  -3443711.44649  -2683408.26348  20235220.9944   20235221.5384
 95  3 21  1 27 30.0000000  0  7G 5G 9G 4G20G 6G16G24
  -6444953.88249  -5022039.23547  21555135.3364   21555135.3014
    774133.10049    603220.40247  21388314.1094   21388315.0404
   3033769.38549   2363977.00548  21162417.1474   21162416.6264
   -787647.28348   -613749.57045  24578602.5994   24578604.9514
   -281678.17148   -219489.02545  25355881.4974   25355887.5874
  -1315248.30948  -1024867.87345  24914320.7524   24914321.5764
  -3462581.24349  -2698111.97848  20231630.1694   20231630.8604
 95  3 21  1 28  0.0000000  0  7G 5G 9G 4G20G 6G16G24
  -6514425.59849  -5076173.01247  21541915.2764   21541915.2104
    806838.19949    628704.87948  21394538.1934   21394538.4964
   3090589.99349   2408252.80248  21173229.7414   21173229.2234
   -886189.40648   -690535.53945  24559850.5784   24559852.2974
   -351876.20248   -274188.80845  25342523.0484   25342528.6144
  -1404161.86948  -1094151.10244  24897401.0604   24897409.5834
  -3480948.06949  -2712423.76848  20228135.1124   20228135.6574
 95  3 21  1 28 30.0000000  0  7G 5G 9G 4G20G 6G16G24
  -6583714.17949  -5130164.08547  21528729.9614   21528730.2874
    840054.84849    654587.95947  21400858.8874   21400858.9594
   3147832.80649   2452857.59248  21184122.6164   21184121.9184
   -984786.65048   -767364.45945  24541088.1414   24541088.5124
   -422035.16448   -328858.11045  25329171.9424   25329174.7374
  -1493234.60948  -1163558.30345  24880450.2364   24880453.0294
  -3498819.09549  -2726349.22048  20224734.2444   20224734.8554
 95  3 21  1 29  0.0000000  0  7G 5G 9G 4G20G 6G16G24
  -6652785.78749  -5183986.08547  21515586.0084   21515586.3584
    873820.09349    680898.51747  21407284.1684   21407284.3664
   3205543.86249   2497827.24348  21195104.5554   21195104.0444
  -1083394.23648   -844201.49345  24522323.3864   24522323.9664
   -492113.61648   -383464.68545  25315836.1784   25315838.4234
  -1582420.34948  -1233053.68845  24863477.6804   24863482.8474
  -3516129.33349  -2739837.69548  20221440.1574   20221440.6484
 95  3 21  1 29 30.0000000  0  7G 5G 9G 4G20G 6G16G24
  -6721675.84849  -5237666.62147  21502476.6714   21502477.0864
    908084.55649    707598.08347  21413804.3804   21413805.0714
   3263668.53849   2543119.19848  21206165.4244   21206164.9864
  -1182048.76748   -921075.07245  24503549.9904   24503549.9574
   -562139.30948   -438030.08244  25302510.9144   25302508.9114
  -1671757.48448  -1302666.88745  24846476.4734   24846480.3124
  -3532905.87249  -2752910.30248  20218247.7064   20218248.2484
 95  3 21  1 30  0.0000000  0  7G 5G 9G 4G20G 6G16G24
  -6790403.14749  -5291220.33547  21489398.3604   21489398.4944
    942814.54749    734660.41247  21420413.1514   21420413.9354
   3322167.58049   2588702.86948  21217297.5414   21217296.8714
  -1280776.52948   -998005.69345  24484762.7944   24484763.5444
   -632148.04548   -492582.36744  25289188.6694   25289195.5144
  -1761277.92648  -1372422.95845  24829441.7844   24829444.1914
  -3549187.20149  -2765597.02848  20215149.5514   20215150.0294
 95  3 21  1 30 30.0000000  0  7G 5G 9G 4G20G 6G16G24
  -6858919.86249  -5344609.95847  21476360.1044   21476360.1164
    978040.95049    762109.55747  21427116.7044   21427117.1854
   3381070.59449   2634601.32248  21228506.3484   21228505.7444
  -1379519.08148  -1074947.89145  24465971.9564   24465974.9994
   -702120.78648   -547106.58645  25275872.6814   25275874.6064
  -1850939.48548  -1442289.09945  24812382.1114   24812382.6824
  -3564919.12349  -2777855.64448  20212155.7984   20212156.3364
 95  3 21  1 31  0.0000000  0  7G 5G 9G 4G20G 6G16G24
  -6927219.28449  -5397830.26247  21463363.0404   21463363.3364
   1013771.50449    789951.53747  21433915.8444   21433916.2754
   3440362.38349   2680802.72048  21239789.0844   21239788.5544
  -1478256.80348  -1151886.29345  24447182.9104   24447183.2674
   -772057.96448   -601603.05844  25262564.3934   25262570.5264
  -1940725.93548  -1512252.45145  24795296.5374   24795299.5184
  -3580104.33549  -2789688.24948  20209266.0554   20209266.5874
 95  3 21  1 31 30.0000000  0  7G 5G 9G 4G20G 6G24G16
  -6995281.95449  -5450866.08747  21450411.0554   21450411.2914
   1050014.83649    818193.08447  21440812.6514   21440813.3224
   3500030.34249   2727297.23448  21251143.5674   21251143.0634
  -1576995.30248  -1228825.29545  24428394.0114   24428396.2174
   -841958.41148   -656070.98445  25249264.5524   25249269.0194
  -3594754.58749  -2801104.00248  20206478.1904   20206478.7714
  -2030634.68448  -1582311.13645  24778186.9384   24778188.6124
 95  3 21  1 32  0.0000000  0  7G 5G 9G 4G20G 6G16G24
  -7063094.55449  -5503707.05247  21437506.9514   21437506.8794
   1086777.88749    846839.60447  21447808.3334   21447809.1634
   3560083.23149   2774091.70148  21262571.3224   21262570.8704
  -1675734.48348  -1305764.85745  24409604.3284   24409608.4134
   -911824.84148   -710512.31545  25235969.6854   25235971.5654
  -2120650.42148  -1652453.19044  24761056.0284   24761060.9004
  -3608885.79849  -2812115.30648  20203789.0934   20203789.4844
 95  3 21  1 32 30.0000000  0  7G 5G 9G 4G20G 6G16G24
  -7130641.61249  -5556341.11847  21424653.2914   21424652.9534
   1124069.03249    875897.62647  21454904.8794   21454905.7884
   3620553.85949   2821211.68048  21274078.5174   21274077.9844
  -1774466.30848  -1382698.68945  24390816.1314   24390817.3864
   -981619.46448   -764897.65845  25222687.4474   25222689.4334
  -2210747.58747  -1722658.74345  24743909.8354   24743913.5104
  -3622480.52749  -2822708.57148  20201202.1674   20201202.8094
 95  3 21  1 33  0.0000000  0  7G 5G 9G 4G20G 6G16G24
  -7197959.06549  -5608796.26948  21411843.0694   21411842.8924
   1161870.31349    905353.15547  21462098.4034   21462099.0454
   3681434.60449   2868651.23348  21285663.5414   21285663.0684
  -1873225.22548  -1459653.61645  24372023.2654   24372024.4584
  -1051357.57748   -819239.03644  25209415.0834   25209417.8334
  -2300956.95747  -1792951.70345  24726743.6944   24726753.6524
  -3635559.25049  -2832899.75348  20198713.3004   20198713.6924
 95  3 21  1 33 30.0000000  0  7G 5G 9G 4G20G 6G16G24
  -7265059.14849  -5661082.03348  21399074.3234   21399074.2494
   1200173.63049    935199.87747  21469387.4874   21469388.1264
   3742731.51849   2916415.07047  21297327.8454   21297327.6144
  -1972023.42848  -1536639.20045  24353222.5314   24353223.1494
  -1121049.50148   -873544.30144  25196152.2064   25196158.5404
  -2391305.86848  -1863353.41645  24709551.5034   24709553.4644
  -3648125.80349  -2842691.84548  20196321.9494   20196322.4154
 95  3 21  1 34  0.0000000  0  7G 5G 9G 4G20G 6G16G24
  -7331953.69849  -5713207.64048  21386344.7174   21386344.8384
   1238974.65549    965434.42647  21476770.8524   21476771.3304
   3804458.72849   2964514.20648  21309074.1204   21309073.7304
  -2070844.77648  -1613642.78445  24334417.3404   24334419.1694
  -1190695.30548   -927813.70945  25182899.9164   25182902.4754
  -2481800.90848  -1933869.00845  24692331.8654   24692335.2374
  -3660179.48349  -2852084.29548  20194028.2094   20194028.7144
 95  3 21  1 34 30.0000000  0  7G 5G 9G 4G20G 6G16G24
  -7398647.73149  -5765177.00047  21373653.1404   21373653.4784
   1278274.06049    996057.33147  21484249.1284   21484250.0334
   3866616.66349   3012948.97147  21320902.4474   21320902.0754
  -2169688.20748  -1690663.56045  24315608.1204   24315608.8964
  -1260286.74948   -982040.76045  25169657.5234   25169661.8264
  -2572447.25548  -2004502.46645  24675082.7784   24675085.5894
  -3671706.73949  -2861066.54748  20191834.6404   20191835.0684
 95  3 21  1 35  0.0000000  0  7G 5G 9G 4G20G 6G16G24
  -7465127.64949  -5816979.50948  21361002.2874   21361002.5274
   1318085.15349   1027078.95147  21491825.0734   21491825.8094
   3929197.31249   3061713.12647  21332811.3224   21332810.8014
  -2268528.99248  -1767682.31245  24296799.5364   24296801.2614
  -1329823.02448  -1036224.84745  25156425.4964   25156427.3914
  -2663229.50748  -2075241.80345  24657806.7064   24657812.7134
  -3682695.48349  -2869629.17748  20189743.5554   20189743.9384
 95  3 21  1 35 30.0000000  0  7G 5G 9G 4G20G 6G16G24
  -7531362.90249  -5868591.36748  21348398.2564   21348398.4874
   1358406.81649   1058498.41247  21499498.1644   21499498.4444
   3992198.43449   3110804.92047  21344800.0114   21344799.4344
  -2367344.29648  -1844681.17545  24277995.6214   24277997.8474
  -1399280.64848  -1090347.57845  25143207.9444   25143214.7664
  -2754117.73048  -2146063.77945  24640510.1724   24640515.3634
  -3693150.12549  -2877775.62848  20187754.1534   20187754.5424
 95  3 21  1 36  0.0000000  0  7G 5G 9G 4G20G 6G16G24
  -7597349.68349  -5920009.61248  21335841.5354   21335841.6424
   1399227.32149   1090306.57947  21507266.1434   21507266.3034
   4055607.21849   3160214.34147  21356866.2434   21356866.0714
  -2466148.71348  -1921671.55346  24259193.5684   24259194.8674
  -1468665.37548  -1144413.52045  25130004.2554   25130008.0174
  -2845101.97248  -2216960.50745  24623196.2244   24623202.9664
  -3703080.37049  -2885513.45748  20185864.3194   20185864.8094
 95  3 21  1 36 30.0000000  0  7G 5G 9G 4G20G 6G16G24
  -7663085.91649  -5971232.62648  21323332.4104   21323332.5374
   1440533.97949   1122493.57347  21515126.2574   21515126.7234
   4119403.79149   3209925.99547  21369006.1734   21369005.5944
  -2564964.53748  -1998670.81646  24240389.4924   24240390.0134
  -1537984.12548  -1198427.99944  25116812.7894   25116816.6644
  -2936177.75148  -2287928.58645  24605866.1564   24605868.3874
  -3712484.21649  -2892841.10548  20184074.7444   20184075.1904
 95  3 21  1 37  0.0000000  0  7G 5G 9G 4G20G 6G16G24
  -7728561.23849  -6022252.33848  21310872.8404   21310872.5984
   1482325.73249   1155058.56847  21523078.7644   21523079.3794
   4183573.85349   3259928.64847  21381217.3844   21381217.0724
  -2663779.09448  -2075669.07345  24221585.3904   24221588.7734
  -1607241.71048  -1252394.83445  25103633.5914   25103636.7484
  -3027340.13248  -2358964.11545  24588519.6804   24588520.3374
  -3721360.73049  -2899757.84648  20182385.7054   20182386.1414
 95  3 21  1 37 30.0000000  0  7G 5G 9G 4G20G 6G16G24
  -7793766.15349  -6073061.34048  21298464.7384   21298464.5294
   1524616.14749   1188012.13247  21531126.4974   21531127.1014
   4248137.33049   3310237.85447  21393503.3824   21393503.0894
  -2762578.53248  -2152655.56045  24202784.1594   24202784.6004
  -1676426.71148  -1306305.16545  25090469.5204   25090470.2604
  -3118582.58548  -2430062.01245  24571157.1114   24571157.5384
  -3729701.68949  -2906257.27348  20180798.4714   20180798.9214
 95  3 21  1 38  0.0000000  0  7G 5G 9G 4G20G 6G16G24
  -7858737.70549  -6123688.49948  21286100.9884   21286100.8164
   1567379.91649   1221334.53847  21539264.3454   21539264.6094
   4313074.50349   3360838.25347  21405860.5714   21405860.2384
  -2861382.52748  -2229645.63546  24183982.1854   24183983.5144
  -1745561.23948  -1360176.18845  25077314.0174   25077317.9494
  -3209934.82548  -2501245.47245  24553772.8024   24553775.7814
  -3737518.30149  -2912348.12148  20179311.0234   20179311.3704
 95  3 21  1 38 30.0000000  0  7G 5G 9G 4G20G16G 6G24
  -7923480.25749  -6174137.21148  21273780.6434   21273780.5594
   1610608.04449   1255018.77947  21547490.5724   21547490.6694
   4378380.35949   3411725.93547  21418287.8314   21418287.3094
  -2960168.83648  -2306621.86245  24165183.8914   24165188.2634
  -3301397.17048  -2572514.74545  24536367.4734   24536371.1164
  -1814637.33948  -1414001.59545  25064168.9824   25064172.8744
  -3744810.06149  -2918029.99248  20177923.4054   20177923.7964
 95  3 21  1 39  0.0000000  0  7G 5G 9G 4G20G 6G16G24
  -7987992.17549  -6224406.20548  21261504.2884   21261504.3974
   1654309.39249   1289071.77347  21555806.6244   21555807.1364
   4444065.48149   3462909.15047  21430787.4164   21430786.7344
  -3058922.73348  -2383572.88345  24146391.6944   24146391.9044
  -1883647.30848  -1467775.55145  25051035.7414   25051039.5164
  -3392968.79148  -2643869.10545  24518941.1914   24518943.9954
  -3751575.08249  -2923301.41648  20176636.0204   20176636.3614
 95  3 21  1 39 30.0000000  0  7G 5G 9G 4G20G16G 6G24
  -8052286.09649  -6274505.33548  21249269.6474   21249269.6824
   1698473.19049   1323485.12547  21564210.5324   21564211.3074
   4510141.22449   3514396.74447  21443361.1754   21443360.6674
  -3157665.58348  -2460515.35445  24127601.3124   24127603.3424
  -3484653.07248  -2715311.37945  24501493.6734   24501500.2004
  -1952592.60748  -1521499.08845  25037916.0004   25037920.9604
  -3757824.84649  -2928171.34348  20175446.6364   20175447.2344
 95  3 21  1 40  0.0000000  0  7G 5G 9G 4G20G 6G16G24
  -8116351.51549  -6324426.41548  21237078.4744   21237078.6674
   1743106.66749   1358264.45247  21572703.9774   21572704.5274
   4576596.99049   3566180.46147  21456007.2024   21456006.5444
  -3256408.09248  -2537457.50545  24108811.5124   24108813.6454
  -2021478.08748  -1575176.03745  25024808.2204   25024810.1624
  -3576439.75248  -2786833.39645  24484027.9684   24484031.9174
  -3763547.44949  -2932630.49848  20174357.6444   20174358.3744
 95  3 21  1 40 30.0000000  0  7G 5G 9G 4G20G16G 6G24
  -8180159.89449  -6374147.19948  21224936.0564   21224936.2294
   1788230.04149   1393425.50747  21581290.9444   21581291.3634
   4643434.21949   3618261.42047  21468726.0334   21468725.3164
  -3355148.97848  -2614398.40645  24090022.1134   24090025.3764
  -3668308.87148  -2858419.65545  24466546.4554   24466548.4844
  -2090306.20348  -1628808.26745  25011710.6924   25011713.3274
  -3768729.68449  -2936668.58648  20173371.6564   20173372.1864
 95  3 21  1 41  0.0000000  0  7G 5G 9G 4G20G16G 6G24
  -8243701.30049  -6423659.95848  21212844.6374   21212844.4844
   1833853.22749   1428976.03347  21589972.7644   21589972.8214
   4710653.41849   3670640.01847  21481517.4764   21481517.0714
  -3453891.01548  -2691340.22645  24071232.1354   24071234.9094
  -3760250.56948  -2930062.44845  24449050.7064   24449050.8624
  -2159085.98848  -1682402.88745  24998621.3034   24998623.2674
  -3773367.12049  -2940282.15548  20172489.1384   20172489.5744
 95  3 21  1 41 30.0000000  0  7G 5G 9G 4G20G 6G16G24
  -8306980.25949  -6472968.22048  21200803.1654   21200802.9634
   1879964.36249   1464906.77347  21598747.0604   21598747.6334
   4778228.23249   3723295.71747  21494376.5264   21494376.2754
  -3552637.82548  -2768285.71845  24052441.3404   24052442.9274
  -2227838.82548  -1735976.51345  24985537.2674   24985542.2134
  -3852252.59248  -3001752.27245  24431543.3984   24431542.5814
  -3777480.81249  -2943487.61148  20171706.0884   20171706.4634
 95  3 21  1 42  0.0000000  0  7G 5G 9G 4G20G16G 6G24
  -8369978.92649  -6522058.07548  21188814.7584   21188814.7044
   1926565.78449   1501219.55847  21607615.1294   21607615.6884
   4846141.19449   3776214.90547  21507300.0154   21507299.5454
  -3651365.50148  -2845216.32845  24033654.0434   24033654.7424
  -3944304.10548  -3073480.64045  24414026.5644   24414027.9234
  -2296563.95248  -1789528.53945  24972459.4064   24972463.3464
  -3781054.82749  -2946272.53448  20171025.9274   20171026.5024
 95  3 21  1 42 30.0000000  0  7G 5G 9G 4G20G16G 6G24
  -8433032.23949  -6571190.50548  21176816.0554   21176816.2024
   1973295.40149   1537632.23547  21616507.6704   21616508.2744
   4914056.85249   3829136.20547  21520223.9064   21520223.4534
  -3750396.21948  -2922383.07145  24014808.9264   24014809.8414
  -4036745.03748  -3145512.43345  24396434.9084   24396432.1994
  -2365590.05848  -1843315.10345  24959325.0774   24959327.5834
  -3784425.80949  -2948899.25248  20170384.6374   20170385.0974
 95  3 21  1 43  0.0000000  0  7G 5G 9G 4G20G16G 6G24
  -8496060.97849  -6620303.78348  21164822.1144   21164822.1044
   2020226.72349   1574202.08147  21625438.3134   21625439.1854
   4982052.68649   3882119.97247  21533163.0814   21533162.4234
  -3849643.38448  -2999718.47645  23995922.5154   23995923.3214
  -4129496.96848  -3217786.57845  24378784.7584   24378791.1774
  -2434828.62448  -1897267.17245  24946150.2974   24946148.9094
  -3787527.49749  -2951316.12748  20169794.4284   20169795.0214
 95  3 21  1 43 30.0000000  0  7G 5G 9G 4G20G16G 6G24
  -8558109.18649  -6668653.01748  21153014.5134   21153014.6424
   2068315.49849   1611673.84547  21634589.3054   21634590.1224
   5051090.14149   3935915.39947  21546300.4474   21546299.9124
  -3948151.51448  -3076477.98545  23977176.9684   23977177.5934
  -4221607.48948  -3289560.98945  24361257.1314   24361258.5924
  -2503308.09048  -1950627.73945  24933118.9754   24933121.2864
  -3789401.95449  -2952776.71848  20169437.6754   20169438.1454
 95  3 21  1 44  0.0000000  0  7G 5G 9G 4G20G 6G16G24
  -8619799.05749  -6716723.03048  21141275.4354   21141275.4584
   2116933.73149   1649558.17447  21643841.1024   21643841.9484
   5120549.61249   3990039.66947  21559517.9964   21559517.6044
  -4046556.75248  -3153157.33745  23958451.0744   23958451.1944
  -2571643.68248  -2003876.27045  24920114.5714   24920117.8204
  -4313722.11548  -3361338.51545  24343728.1684   24343731.6734
  -3790669.43849  -2953764.34448  20169196.3794   20169196.9404
 95  3 21  1 44 30.0000000  0  7G 5G 9G 4G20G16G 6G24
  -8681242.41949  -6764600.95648  21129583.2604   21129583.2094
   2165988.83349   1687782.91947  21653175.9454   21653176.7274
   5190349.80349   4044429.43547  21572800.5044   21572800.0174
  -4144954.40148  -3229830.76046  23939726.3824   23939728.0414
  -4405932.45548  -3433190.63245  24326180.8824   24326185.5834
  -2639938.96148  -2057093.27545  24907117.9184   24907118.5934
  -3791454.10849  -2954375.74948  20169046.9914   20169047.4344
